Žaludok

Belarus     53˚35′58″N   24˚58′51″E
temp.,
°C
wind,
m/s
gust,
m/s
humid.,
%
clouds,
%
prec.,
mm/h
press.,
hPa
HPBL,
m
28 november, sat
sat2800:00+2˚nw5896100 1.2 1015518
03:00+1˚nw3691100 1.8 1016382
06:00−1˚n369191 0.3 1016301
09:00−2˚n369459 0.3 1018272
12:00n357971 0.0 1018537
15:00nnw359285 0.3 1018361
18:00nw249899 0.9 1018215
21:00nne249899 2.0 1019157
29 november, sun
sun2900:00−1˚e359796 1.1 1019267
03:00−2˚ne249495 1.1 1020130
06:00−2˚nne359590 0.1 1019253
09:00−1˚nne369895 0.3 1020232
12:00ne479699 0.1 1020451
15:00nne3597100 0.3 1020309
18:00nne3598100 0.8 1019309
21:00−1˚nne259897 1.2 1020198
30 november, mon
mon3000:00−2˚n229887 0.1 102179
03:00−2˚nnw129883 0.2 102125
06:00−2˚nw119786 0.1 102145
09:00−2˚wnw129879 0.2 102373
12:00−1˚w239166 0.1 1024286
15:00wsw348668 0.1 1024568
18:00−1˚wsw359191 0.1 1025400
21:00−1˚sw368693 0.1 1026315
1 december, tue
tue100:00−3˚sw379072 0.0 1026202
03:00−3˚ssw369365 0.0 1026186
06:00−3˚s36920 0.0 1026156
09:00−2˚s369140 0.0 1027254
12:00ssw4674100 0.1 1027874
15:00s4573100 0.1 1027965
18:00−3˚sse348895 0.0 1027108
21:00−3˚se368892 0.0 1029207
2 december, wed
wed200:00−4˚sse379113 0.0 1029235
03:00−4˚se25926 0.0 1029157
06:00−4˚se24930 0.0 1029126
09:00−4˚se36934 0.0 1029158
12:00−2˚se36840 0.0 1029295
15:00−1˚se24811 0.0 1028343
18:00−4˚se23911 0.0 102778
21:00−4˚se35891 0.0 1028129